Wind_Speed
36 32 30 29 29 27 26 25 26 25 25 26 26 27 28 28 28 28 28 28 28 28 28 28 29 29 29 29 30 31 33 35 37 39 40 41 41 40 39 37 36 35
39 34 31 30 30 28 27 26 26 26 26 26 27 28 29 30 30 29 29 29 29 29 29 29 29 30 30 30 31 32 33 35 37 39 41 43 42 41 39 37 37 36
42 38 34 32 32 30 28 28 27 27 27 27 28 29 30 31 31 31 31 30 30 30 30 30 30 30 31 31 32 33 34 36 38 39 41 43 43 42 39 37 36 36
43 40 36 34 33 32 30 29 28 28 28 28 29 29 30 31 32 32 32 31 31 31 31 32 31 31 31 32 33 33 34 36 38 39 40 42 43 42 39 38 37 37
43 41 39 36 34 34 32 30 29 29 29 29 30 30 31 32 32 33 33 33 33 32 32 32 32 33 33 33 33 34 34 35 36 38 39 40 41 41 40 38 37 38
42 41 41 37 35 35 33 31 30 29 29 30 30 31 31 32 32 33 34 34 34 33 33 33 32 32 33 33 34 34 34 34 35 36 37 38 38 38 38 37 37 38
41 40 41 38 36 35 33 32 30 30 30 31 31 32 32 32 32 33 34 34 34 34 33 33 32 32 32 33 34 34 33 33 33 33 34 35 36 36 36 36 37 37
41 40 41 39 36 35 34 32 31 31 31 32 32 33 33 33 33 33 34 34 34 34 34 33 32 32 32 32 33 33 33 32 31 30 30 32 34 34 35 36 36 36
41 39 40 39 36 35 34 32 31 32 32 33 34 34 35 34 33 33 33 34 34 34 34 33 32 32 32 32 32 32 32 31 29 28 28 30 32 33 34 35 36 36
40 39 39 38 36 35 34 32 32 32 33 34 35 35 35 35 34 33 33 34 34 34 34 33 33 33 33 32 32 32 31 29 28 27 28 29 31 33 34 35 36 36
39 38 38 39 37 35 34 32 32 33 34 35 36 36 36 35 34 34 34 34 34 33 33 33 33 33 33 32 32 31 29 28 28 27 27 29 31 33 35 36 36 36
39 37 38 39 37 34 33 32 32 33 34 36 36 36 36 35 35 34 34 34 34 33 33 33 33 33 33 32 31 30 28 28 28 28 28 29 30 33 35 36 37 37
38 37 38 39 36 34 33 32 33 34 35 36 37 36 36 35 35 34 34 34 34 33 33 32 32 32 32 32 31 29 27 28 29 31 32 32 33 35 36 37 38 37
37 37 38 38 35 33 33 33 33 34 35 36 36 36 35 35 35 34 33 33 33 33 32 32 32 32 31 31 30 28 28 28 30 32 33 34 35 36 37 37 37 37
36 37 37 35 34 33 33 34 34 34 35 36 36 36 35 35 35 34 33 33 33 32 32 32 32 32 31 31 30 28 28 29 30 32 33 35 36 36 35 35 36 36
35 35 34 33 33 34 34 34 35 35 36 36 36 36 35 35 35 34 33 33 33 33 32 32 32 31 31 31 30 28 27 28 29 31 33 34 34 34 33 34 35 35
33 33 32 33 34 34 35 35 35 36 36 37 37 36 35 35 34 33 33 33 33 33 33 33 32 32 31 31 30 27 26 27 28 29 31 32 32 31 32 32 33 34
31 32 32 33 34 34 35 35 36 36 37 37 37 36 35 34 33 33 33 33 34 34 34 33 32 33 32 31 29 27 26 28 29 31 31 31 30 29 30 31 32 33
32 33 33 33 34 34 35 36 36 36 37 37 36 35 34 34 33 34 34 34 35 35 35 34 33 34 33 31 29 27 27 29 30 31 30 29 28 27 28 29 31 31
32 33 32 33 34 35 36 36 36 36 36 36 35 34 33 34 34 34 34 35 35 35 35 35 34 34 33 31 30 29 28 28 29 30 29 27 26 26 27 28 29 29
31 32 32 34 35 35 37 38 37 36 37 36 35 34 33 33 33 34 35 36 36 36 36 36 35 34 32 30 30 29 28 28 29 30 28 26 25 25 26 26 27 28
30 32 33 35 36 36 38 38 38 38 38 36 35 34 34 34 33 34 36 37 37 37 37 37 36 34 31 30 29 29 29 30 30 29 28 26 25 24 25 25 26 26
31 32 34 36 36 37 38 38 39 39 38 37 37 37 37 36 35 36 37 38 38 37 37 37 37 34 31 30 30 29 29 30 30 29 27 25 24 23 24 24 24 25
34 35 36 37 37 38 38 40 40 40 39 39 39 39 40 39 38 38 39 39 39 38 38 38 36 34 32 31 30 30 30 30 29 29 27 25 23 23 24 24 24 25
37 38 39 40 40 40 41 42 43 42 40 40 41 41 41 41 40 40 40 40 40 38 38 37 35 33 32 31 30 30 31 31 30 29 28 26 24 24 24 25 25 25
36 39 41 42 42 43 44 45 45 43 42 42 42 42 41 41 41 40 41 41 40 39 37 36 34 32 31 31 30 30 31 31 31 30 28 26 25 25 25 25 25 26
Wind_Direction
323 319 316 315 312 310 309 307 307 306 305 304 305 306 306 305 303 301 300 298 296 293 289 285 280 276 271 267 264 263 262 262 260 257 254 252 251 250 248 246 245 245
319 319 315 313 311 309 307 306 305 304 303 303 304 306 306 305 303 301 299 296 294 292 289 285 280 275 271 267 264 262 262 261 261 259 256 254 251 250 248 246 245 245
315 316 314 312 310 308 305 304 304 303 302 302 304 305 306 305 303 300 298 296 294 291 289 286 282 278 272 267 264 262 260 259 259 259 257 256 253 251 250 249 248 247
311 312 312 311 309 306 305 303 303 302 302 302 303 305 306 305 303 300 297 295 293 291 289 287 285 281 276 271 266 263 260 258 256 256 257 256 254 252 250 249 249 249
308 309 308 308 307 305 303 302 301 301 302 302 303 304 305 304 303 300 298 295 292 290 288 286 285 283 281 276 271 266 262 259 256 254 255 256 255 252 250 248 249 249
304 305 305 305 305 302 301 300 299 300 301 302 303 304 304 304 302 300 298 296 293 291 288 286 285 283 281 279 276 271 266 262 258 253 252 255 256 253 250 249 250 250
301 302 301 302 302 300 298 298 298 299 300 301 303 304 304 303 302 300 299 297 294 292 289 287 285 283 282 280 278 275 269 264 262 257 251 252 255 255 252 249 249 250
298 299 298 299 300 299 296 296 297 298 300 302 304 304 305 304 303 301 299 297 294 291 289 287 285 284 283 281 278 275 271 266 263 259 253 251 253 255 254 250 248 249
295 296 295 297 298 297 295 295 297 299 301 303 304 304 305 304 303 301 299 296 293 291 288 287 286 286 285 283 279 275 271 267 263 258 254 253 252 253 253 251 248 248
292 293 292 294 296 295 294 295 297 299 301 302 303 304 304 303 302 301 299 296 293 290 288 288 287 287 286 284 281 276 272 268 262 256 254 253 253 251 251 249 247 246
289 290 290 292 295 294 294 295 297 298 300 301 302 303 303 302 301 300 298 295 292 290 289 288 288 288 287 285 282 278 273 268 262 257 254 255 255 254 252 249 246 245
286 287 288 291 293 293 293 294 295 297 299 300 302 302 301 301 300 299 297 294 292 291 290 289 288 288 287 286 282 277 271 266 262 259 258 258 258 258 256 252 249 246
284 285 286 289 291 293 293 293 294 296 298 300 301 301 300 299 298 297 295 293 292 291 290 289 288 287 286 285 281 276 269 262 258 258 258 258 258 257 255 252 249 246
283 283 285 287 290 291 292 293 294 297 298 300 300 300 299 298 297 295 293 292 291 291 290 288 287 286 285 284 281 274 265 259 257 259 260 260 260 258 254 251 247 244
282 282 284 286 289 290 291 293 295 297 298 299 299 299 298 296 294 292 291 290 290 290 289 288 287 286 284 283 281 274 264 258 257 260 262 263 262 260 256 252 248 246
282 282 284 286 288 289 291 293 295 297 298 298 298 297 296 294 292 290 289 289 289 289 289 288 286 284 281 280 281 276 265 259 260 263 265 265 264 262 258 254 251 248
285 284 284 286 287 289 290 292 294 296 297 298 297 297 295 293 290 288 287 287 288 288 288 287 285 282 279 278 280 277 266 260 262 265 267 266 264 261 258 256 253 250
286 284 284 285 286 287 289 291 294 297 298 297 297 296 295 293 290 288 287 286 287 287 287 287 284 280 278 276 276 273 265 261 263 264 264 263 261 258 257 255 254 251
286 285 285 285 285 286 287 290 295 299 299 297 296 296 295 294 292 289 287 287 287 287 288 287 283 279 277 276 275 271 264 263 264 263 261 259 256 255 255 255 254 252
287 285 284 283 283 283 285 289 295 299 299 298 298 299 298 297 294 291 289 287 287 288 288 288 285 281 277 274 273 271 267 265 264 262 257 253 251 252 253 254 253 252
287 284 282 281 281 282 284 289 294 298 299 299 299 301 302 300 297 293 290 288 288 288 288 288 287 284 277 271 269 268 268 266 262 257 252 248 247 250 252 253 252 252
283 280 279 278 278 280 284 288 292 296 299 299 299 301 304 304 302 297 292 289 289 289 290 290 289 284 276 268 265 265 264 261 257 252 248 245 245 248 250 250 251 250
280 278 277 276 277 280 283 287 289 292 296 299 299 300 303 304 305 302 296 291 290 290 290 290 289 283 272 264 262 261 260 256 252 247 244 242 243 246 247 247 247 247
277 276 275 275 277 280 282 285 286 288 292 295 297 299 300 302 304 305 300 293 289 289 290 290 287 281 270 262 259 258 257 253 249 245 242 240 241 243 244 244 244 244
274 274 274 276 278 279 279 281 283 285 288 291 293 295 297 299 302 304 301 293 287 287 289 288 285 278 269 262 258 255 254 251 248 245 242 239 238 239 240 241 241 244
278 275 274 275 275 275 276 277 279 283 286 288 290 292 294 296 299 302 300 292 285 285 287 286 282 275 267 262 258 255 253 251 248 245 240 237 236 237 237 239 242 247
Height
3059 3058 3056 3055 3053 3052 3050 3049 3047 3046 3045 3044 3043 3042 3041 3039 3038 3036 3035 3034 3033 3032 3031 3030 3029 3029 3029 3029 3029 3029 3030 3030 3030 3031 3030 3030 3031 3031 3031 3032 3032 3032
3056 3055 3053 3052 3050 3049 3047 3046 3044 3043 3042 3041 3040 3039 3038 3036 3035 3033 3032 3030 3029 3029 3028 3027 3026 3026 3025 3025 3025 3025 3025 3026 3026 3026 3026 3026 3026 3027 3027 3027 3028 3028
3052 3051 3050 3049 3047 3045 3044 3042 3041 3040 3038 3037 3036 3035 3034 3033 3031 3030 3029 3027 3026 3025 3024 3023 3023 3022 3022 3021 3021 3020 3021 3021 3021 3022 3022 3022 3022 3022 3023 3024 3024 3024
3049 3048 3047 3045 3044 3042 3040 3039 3037 3036 3035 3033 3032 3031 3030 3029 3028 3026 3025 3024 3022 3022 3020 3020 3019 3018 3018 3017 3017 3017 3016 3016 3017 3017 3017 3017 3018 3018 3019 3020 3020 3021
3046 3044 3043 3042 3040 3039 3037 3035 3034 3032 3031 3030 3028 3027 3026 3024 3023 3022 3021 3020 3019 3018 3017 3016 3015 3014 3014 3013 3013 3013 3012 3012 3012 3013 3013 3013 3013 3014 3014 3015 3016 3017
3043 3041 3039 3038 3037 3035 3033 3032 3030 3029 3027 3026 3025 3023 3022 3020 3019 3018 3017 3016 3015 3014 3013 3012 3011 3010 3009 3009 3008 3008 3008 3007 3007 3008 3008 3009 3009 3009 3010 3010 3011 3012
3038 3037 3035 3034 3033 3031 3029 3028 3026 3025 3023 3022 3021 3019 3018 3016 3015 3014 3013 3012 3011 3009 3008 3007 3007 3006 3005 3004 3004 3003 3003 3002 3002 3003 3003 3004 3005 3005 3005 3006 3007 3008
3034 3033 3031 3030 3029 3027 3025 3024 3022 3021 3019 3018 3017 3015 3014 3012 3011 3010 3009 3008 3006 3005 3004 3003 3002 3001 3000 3000 2999 2999 2998 2998 2998 2998 2998 2999 3000 3000 3001 3002 3002 3003
3029 3028 3027 3026 3024 3022 3021 3019 3018 3017 3015 3014 3013 3011 3009 3008 3007 3005 3004 3003 3002 3000 2999 2998 2997 2997 2996 2996 2995 2995 2994 2994 2993 2994 2994 2995 2995 2996 2996 2997 2998 2999
3025 3024 3022 3021 3020 3018 3016 3015 3014 3012 3011 3010 3008 3006 3005 3003 3002 3001 2999 2998 2997 2996 2995 2994 2993 2992 2991 2991 2991 2990 2990 2990 2990 2990 2990 2991 2991 2992 2992 2992 2993 2994
3020 3019 3018 3017 3015 3014 3012 3011 3009 3008 3007 3005 3003 3002 3000 2999 2997 2996 2995 2993 2992 2991 2990 2989 2989 2988 2987 2986 2986 2986 2986 2986 2986 2986 2987 2987 2988 2988 2988 2988 2988 2989
3015 3014 3013 3012 3011 3009 3008 3007 3005 3004 3002 3001 2999 2997 2996 2995 2993 2992 2990 2989 2988 2987 2986 2985 2984 2983 2982 2982 2982 2982 2982 2982 2982 2983 2983 2983 2984 2984 2984 2984 2984 2985
3010 3010 3009 3007 3006 3005 3004 3002 3001 3000 2998 2996 2995 2993 2991 2990 2989 2987 2986 2984 2983 2982 2981 2980 2980 2979 2978 2978 2977 2977 2978 2978 2978 2978 2979 2979 2979 2979 2979 2979 2980 2981
3006 3005 3004 3003 3002 3001 2999 2998 2997 2995 2994 2992 2990 2988 2987 2985 2984 2983 2981 2980 2979 2978 2977 2976 2975 2974 2974 2973 2973 2973 2974 2974 2974 2974 2974 2974 2974 2974 2974 2975 2975 2976
3001 3000 3000 2999 2998 2996 2995 2993 2992 2991 2989 2987 2985 2984 2982 2981 2979 2978 2976 2975 2974 2973 2972 2972 2971 2970 2970 2969 2969 2969 2969 2969 2970 2970 2970 2970 2970 2970 2970 2971 2971 2972
2997 2996 2996 2995 2993 2992 2991 2989 2988 2986 2984 2982 2981 2979 2977 2976 2974 2973 2972 2971 2970 2969 2968 2967 2966 2966 2965 2965 2964 2965 2965 2965 2966 2966 2966 2966 2966 2966 2966 2967 2968 2969
2993 2992 2991 2990 2989 2988 2986 2985 2983 2981 2980 2978 2976 2974 2972 2971 2969 2968 2968 2967 2965 2964 2963 2963 2962 2962 2961 2961 2960 2960 2961 2961 2961 2961 2961 2961 2961 2962 2962 2963 2964 2965
2989 2988 2987 2986 2984 2983 2981 2980 2979 2977 2975 2973 2971 2969 2968 2966 2965 2964 2963 2962 2961 2960 2959 2958 2958 2957 2957 2957 2956 2957 2957 2957 2957 2957 2956 2957 2957 2957 2958 2959 2960 2961
2985 2984 2983 2981 2980 2978 2977 2975 2974 2972 2971 2969 2967 2965 2963 2962 2961 2959 2958 2958 2957 2956 2955 2954 2953 2953 2952 2952 2952 2952 2953 2952 2952 2952 2952 2952 2953 2953 2954 2955 2956 2957
2980 2979 2978 2976 2975 2974 2972 2971 2970 2968 2966 2964 2963 2961 2959 2958 2956 2955 2954 2953 2952 2951 2950 2949 2949 2948 2948 2948 2948 2948 2948 2948 2948 2948 2948 2948 2949 2950 2950 2951 2952 2954
2976 2974 2973 2971 2970 2969 2967 2966 2965 2964 2962 2960 2958 2957 2955 2953 2952 2951 2950 2948 2947 2946 2945 2945 2944 2943 2943 2943 2943 2944 2944 2944 2944 2944 2944 2945 2945 2946 2947 2948 2949 2950
2971 2969 2968 2967 2965 2964 2963 2962 2960 2959 2957 2956 2954 2952 2951 2949 2948 2946 2945 2944 2943 2942 2941 2940 2939 2938 2938 2938 2939 2939 2939 2939 2940 2940 2940 2941 2941 2942 2943 2944 2945 2947
2966 2965 2963 2962 2961 2960 2959 2957 2955 2954 2953 2951 2949 2948 2946 2945 2943 2942 2941 2939 2938 2937 2936 2935 2934 2934 2934 2934 2934 2935 2935 2935 2935 2936 2936 2937 2938 2938 2940 2941 2942 2943
2961 2959 2958 2957 2956 2955 2954 2952 2950 2949 2948 2946 2945 2943 2941 2940 2938 2937 2936 2934 2933 2933 2931 2930 2929 2929 2929 2929 2930 2931 2930 2931 2931 2932 2932 2933 2934 2935 2936 2937 2938 2940
2955 2954 2953 2952 2951 2950 2949 2947 2945 2944 2943 2941 2940 2938 2936 2935 2934 2932 2931 2930 2928 2928 2926 2925 2924 2924 2924 2925 2926 2926 2926 2927 2927 2928 2928 2929 2930 2931 2932 2933 2935 2936
2950 2949 2948 2947 2946 2944 2942 2940 2939 2938 2937 2936 2934 2933 2931 2930 2928 2927 2926 2924 2923 2922 2921 2920 2920 2920 2920 2920 2921 2922 2922 2922 2923 2924 2924 2925 2926 2927 2928 2930 2931 2932